Regional Weather Roundup
Issued by NWS Green Bay, WI

Home | Current Version | Previous Version | Graphics & Text | Print | Product List | Glossary Off
Versions: 1 2 3 4 5 6 7 8 9 10 11 12 13 14 15 16 17 18 19 20 21 22 23 24 25 26 27 28 29 30 31 32 33 34 35 36 37 38 39 40 41 42 43 44 45 46 47 48 49 50

000
ASUS43 KGRB 301211
RWRGRB

NORTH-CENTRAL AND NORTHEAST WISCONSIN REGIONAL WEATHER ROUNDUP
NATIONAL WEATHER SERVICE GREEN BAY WI
700 AM CDT MON MAY 30 2016

WIZ005-009-010>012-018-019-301300-
NORTH CENTRAL WISCONSIN

CITY           SKY/WX    TMP DP  RH WIND       PRES   REMARKS
IRONWOOD       SUNNY     55  54  94 W8        29.95R
MANITOWISH WTR NOT AVBL
ARBOR VITAE    SUNNY     57  54  90 CALM      30.00R
EAGLE RIVER      N/A     55  55 100 W6        29.99R
LAND O LAKES   SUNNY     56  55  96 W3        30.00R
RHINELANDER    SUNNY     57  53  86 W8        30.01R
PHILLIPS       SUNNY     54  53  96 CALM      30.01R
ANTIGO         SUNNY     56  56  99 CALM      30.02R
TOMAHAWK       SUNNY     53  52  97 CALM      30.02R
MERRILL        SUNNY     52  52 100 CALM      30.02R
$$

WIZ013-073-301300-
NORTHEAST WISCONSIN

CITY           SKY/WX    TMP DP  RH WIND       PRES   REMARKS
IRON MOUNTAIN  SUNNY     59  53  80 W7        29.95R
MARINETTE      SUNNY     60  56  86 VRB3      29.97S
OCONTO         SUNNY    N/A N/A N/A W5        29.98R
$$

WIZ017-030-035>037-045-301300-
CENTRAL WISCONSIN

CITY           SKY/WX    TMP DP  RH WIND       PRES   REMARKS
MEDFORD        SUNNY     56  56  99 CALM      30.02R
WAUSAU         SUNNY     61  56  83 NW5       30.00R
MOSINEE        SUNNY     57  57 100 W6        30.02R
MARSHFIELD     SUNNY     60  56  86 NW6       30.02R
WISC RAPIDS    SUNNY     61  56  83 NW5       30.03R
STEVENS POINT  SUNNY     57  57 100 W3        30.02R
WAUPACA        SUNNY     62  62  99 CALM      30.01R
SHAWANO        SUNNY     61  57  87 W5        29.99R
CLINTONVILLE   SUNNY     61  55  82 W5        30.00R
WAUTOMA        SUNNY    N/A N/A N/A SW3       30.02R
$$

WIZ038-039-048-051-301300-
FOX VALLEY

CITY           SKY/WX    TMP DP  RH WIND       PRES   REMARKS
NWS GREEN BAY  SUNNY     62  58  86 CALM      29.99R
APPLETON       MOSUNNY   61  59  94 W7        29.99R
OSHKOSH        SUNNY     64  58  80 W7        30.00R
FOND DU LAC    SUNNY     63  59  87 SW3       30.01R
$$

WIZ022-050-052-301300-
EAST CENTRAL WISCONSIN

CITY           SKY/WX    TMP DP  RH WIND       PRES   REMARKS
EPHRAIM        FAIR      61  56  84 W3        29.96S
STURGEON BAY   NOT AVBL
MANITOWOC      SUNNY     65  58  78 W6        30.00R
SHEBOYGAN      SUNNY     63  59  87 W6        30.00R
$$

LMZ563-521-522-541>543-301300-
LAKESHORE

STATION/POSITION TIME  TEMP    WIND        PRES    VSBY  WAVE
                       AIR SEA DIR/SP/G                  HT/PER
                 (UTC) (F)     (DEG/KT/KT) (MB)    (MI)  (FT/S)
SHEBOYGAN LKSHOR 1200   65     270/  9/ 10 1016.0R
KEWAUNEE LKSHORE 1100   59     300/  5/  6 1014.3R
NORTHPORT PIER   1100   61     250/  4/  7 1013.9S
N MID LAKE BUOY  1150   52 48  230/  8/ 10 1013.9R         1/ 4
CHAMBERS ISLAND  1100   60     200/  5/  8 1014.6R
MENOMINEE LKSHOR 1100   61     250/  6/  8 1013.4R
$$




USA.gov is the U.S. government's official web portal to all federal, state and local government web resources and services.